Thermal, CA

2:01 AM PDT on July 23, 2017 (GMT -0700)
Desert Resorts Regional

Weather History for KTRM - July, 2013

Change the Weather History Date:

Sunday, July 28, 2013

  Actual Average Record
Temperature  
Mean Temperature 99 °F 91 °F  
Max Temperature 111 °F 107 °F 126 °F (1995)
Min Temperature 86 °F 75 °F 63 °F (1986)
Degree Days  
Heating Degree Days 0 0  
Month to date heating degree days 0 0  
Since 1 June heating degree days 0 0  
Since 1 July heating degree days 0 0  
Cooling Degree Days 34 26  
Month to date cooling degree days 809 711  
Year to date cooling degree days 2439 1992  
Since 1 June cooling degree days 1532 1319  
Growing Degree Days 48 (Base 50)    
Moisture  
Dew Point 46 °F    
Average Humidity 20    
Maximum Humidity 31    
Minimum Humidity 9    
Precipitation  
Precipitation 0.00 in 0.00 in 0.91 in (1968)
Month to date precipitation 0.08 0.12  
Year to date precipitation 0.52 1.94  
Since 1 July precipitation 0.08  
Snow  
Snow 0.00 in - - ()
Month to date snowfall 0.0  
Year to date snowfall 0.0  
Snow Depth 0.00 in    
Sea Level Pressure  
Sea Level Pressure 29.66 in    
Wind  
Wind Speed 9 mph (NW)    
Max Wind Speed 18 mph    
Max Gust Speed 24 mph    
Visibility 10 miles    
Events      
T = Trace of Precipitation, MM = Missing Value Source: NWS Daily Summary

Daily Weather History Graph

Daily Weather History Graph

Search for Another Location

Airport or City:

Trip Planner

Search our weather history database for the weather conditions in past years. The results will help you decide how hot, cold, wet, or windy it might be!

Date:

Astronomy

Jul. 28, 2013 Rise Set
Actual Time 5:54 AM PDT 7:47 PM PDT
Civil Twilight 5:26 AM PDT 8:15 PM PDT
Nautical Twilight 4:53 AM PDT 8:48 PM PDT
Astronomical Twilight 4:17 AM PDT 9:23 PM PDT
Moon 11:35 PM PDT (7/28) 12:18 PM PDT (7/28)
Length of Visible Light 14h 48m
Length of Day
13h 53m
Waning Gibbous, 60% of the Moon is Illuminated
Jul 28
Waning Gibbous
Jul 29
Last Quarter
Aug 6
New
Aug 14
First Quarter
Aug 20
Full

Hourly Weather History & Observations

Time (PDT) Temp. Heat Index Dew Point Humidity Pressure Visibility Wind Dir Wind Speed Gust Speed Precip Events Conditions
12:52 AM 91.9 °F 89.5 °F 54.0 °F 27% 29.68 in 10.0 mi NNW 16.1 mph - N/A   Clear
1:52 AM 91.0 °F - 52.0 °F 26% 29.67 in 10.0 mi NNW 13.8 mph - N/A   Clear
2:52 AM 90.0 °F - 50.0 °F 25% 29.66 in 10.0 mi NW 10.4 mph - N/A   Clear
3:52 AM 89.1 °F - 48.0 °F 24% 29.67 in 10.0 mi NW 10.4 mph - N/A   Clear
4:52 AM 88.0 °F - 48.9 °F 26% 29.67 in 10.0 mi NW 10.4 mph - N/A   Clear
5:52 AM 87.1 °F - 51.1 °F 29% 29.69 in 10.0 mi NW 9.2 mph - N/A   Clear
6:52 AM 88.0 °F 85.7 °F 53.1 °F 30% 29.70 in 10.0 mi NW 10.4 mph - N/A   Clear
7:52 AM 91.0 °F 88.9 °F 55.0 °F 29% 29.71 in 10.0 mi NW 9.2 mph - N/A   Clear
8:52 AM 95.0 °F 92.7 °F 54.0 °F 25% 29.71 in 10.0 mi NW 10.4 mph - N/A   Clear
9:52 AM 99.0 °F - 52.0 °F 21% 29.71 in 10.0 mi WNW 9.2 mph - N/A   Clear
10:52 AM 102.9 °F - 46.0 °F 15% 29.70 in 10.0 mi West 5.8 mph - N/A   Clear
11:52 AM 106.0 °F - 46.0 °F 13% 29.69 in 10.0 mi Calm Calm - N/A   Clear
12:52 PM 108.0 °F - 51.1 °F 15% 29.67 in 10.0 mi East 5.8 mph - N/A   Clear
1:52 PM 109.0 °F - 46.9 °F 13% 29.65 in 10.0 mi SE 12.7 mph 18.4 mph N/A   Clear
2:52 PM 108.0 °F - 43.0 °F 11% 29.63 in 10.0 mi Variable 4.6 mph - N/A   Clear
3:52 PM 109.9 °F - 41.0 °F 10% 29.60 in 10.0 mi ENE 5.8 mph - N/A   Clear
4:52 PM 109.9 °F - 39.0 °F 9% 29.60 in 10.0 mi Variable 3.5 mph - N/A   Clear
5:52 PM 107.1 °F - 37.9 °F 9% 29.59 in 10.0 mi NW 11.5 mph 23.0 mph N/A   Clear
6:52 PM 102.0 °F - 35.1 °F 10% 29.61 in 10.0 mi NW 17.3 mph - N/A   Clear
7:52 PM 97.0 °F - 39.9 °F 14% 29.63 in 10.0 mi NNW 16.1 mph - N/A   Clear
8:52 PM 93.0 °F - 43.0 °F 18% 29.65 in 10.0 mi NNW 19.6 mph 26.5 mph N/A   Clear
9:52 PM 90.0 °F - 42.1 °F 19% 29.68 in 10.0 mi NNW 18.4 mph - N/A   Clear
10:52 PM 88.0 °F - 43.0 °F 21% 29.69 in 10.0 mi NNW 19.6 mph - N/A   Clear
11:52 PM 88.0 °F - 39.0 °F 18% 29.69 in 10.0 mi NNW 12.7 mph - N/A   Clear